• In Czech Republic
  • List of Countries
  • For 7 days
  • Water Temperature
  • Satellite Maps
  • Weather Map
  • Weather Widgets
  • user-avatar
    Login

    Hourly Weather Viedma

    Today, 20 October, Saturday

    Time Temperature Precipitation Wind Pressure Humidity
    00:00 +7°C° 0 mm 5 mps 768 mmHg 80%
    01:00 +7°C° 0 mm 5 mps 768 mmHg 81%
    02:00 +7°C° 0 mm 5 mps 767 mmHg 81%
    03:00 +8°C° 0 mm 5 mps 767 mmHg 82%
    04:00 +8°C° 0 mm 5 mps 766 mmHg 82%
    05:00 +8°C° 0 mm 5 mps 766 mmHg 82%
    06:00 +8°C° 0 mm 6 mps 766 mmHg 80%
    07:00 +9°C° 0 mm 6 mps 765 mmHg 78%
    08:00 +10°C° 0 mm 7 mps 765 mmHg 76%
    09:00 +11°C° 0 mm 7 mps 765 mmHg 73%
    10:00 +12°C° 0 mm 7 mps 764 mmHg 70%
    11:00 +14°C° 0 mm 7 mps 764 mmHg 67%
    12:00 +15°C° 0 mm 6 mps 763 mmHg 63%
    13:00 +16°C° 0 mm 6 mps 763 mmHg 59%
    14:00 +17°C° 0 mm 6 mps 762 mmHg 56%
    15:00 +16°C° 0.1 mm 6 mps 762 mmHg 62%
    16:00 +15°C° 0.1 mm 5 mps 762 mmHg 68%
    17:00 +14°C° 0.1 mm 5 mps 761 mmHg 74%
    18:00 +14°C° 0.1 mm 5 mps 761 mmHg 78%
    19:00 +13°C° 0.1 mm 5 mps 761 mmHg 81%
    20:00 +13°C° 0.1 mm 5 mps 761 mmHg 85%
    21:00 +13°C° 0.2 mm 5 mps 761 mmHg 85%
    22:00 +13°C° 0.2 mm 5 mps 760 mmHg 86%
    23:00 +13°C° 0.2 mm 5 mps 760 mmHg 86%

    Tomorrow, 21 October, Sunday

    Time Temperature Precipitation Wind Pressure Humidity
    00:00 +13°C° 0.3 mm 5 mps 759 mmHg 88%
    01:00 +13°C° 0.3 mm 4 mps 759 mmHg 89%
    02:00 +13°C° 0.3 mm 4 mps 759 mmHg 90%
    03:00 +13°C° 0.4 mm 4 mps 758 mmHg 91%
    04:00 +13°C° 0.4 mm 5 mps 758 mmHg 91%
    05:00 +13°C° 0.4 mm 5 mps 758 mmHg 92%
    06:00 +14°C° 0 mm 5 mps 758 mmHg 87%
    07:00 +15°C° 0 mm 5 mps 758 mmHg 82%
    08:00 +15°C° 0 mm 5 mps 758 mmHg 77%
    09:00 +17°C° 0 mm 5 mps 758 mmHg 65%
    10:00 +19°C° 0 mm 5 mps 757 mmHg 53%
    11:00 +21°C° 0 mm 5 mps 757 mmHg 42%
    12:00 +21°C° 0 mm 5 mps 757 mmHg 37%
    13:00 +21°C° 0 mm 6 mps 756 mmHg 33%
    14:00 +22°C° 0 mm 6 mps 756 mmHg 28%
    15:00 +21°C° 0 mm 6 mps 756 mmHg 27%
    16:00 +21°C° 0 mm 5 mps 756 mmHg 26%
    17:00 +21°C° 0 mm 5 mps 755 mmHg 25%
    18:00 +19°C° 0 mm 4 mps 756 mmHg 30%
    19:00 +17°C° 0 mm 3 mps 756 mmHg 36%
    20:00 +14°C° 0 mm 3 mps 756 mmHg 41%
    21:00 +14°C° 0 mm 2 mps 756 mmHg 43%
    22:00 +13°C° 0 mm 2 mps 756 mmHg 46%
    23:00 +13°C° 0 mm 2 mps 756 mmHg 49%

    Day after tomorrow, 22 October, Monday

    Time Temperature Precipitation Wind Pressure Humidity
    00:00 +13°C° 0 mm 2 mps 756 mmHg 47%
    01:00 +12°C° 0 mm 3 mps 756 mmHg 45%
    02:00 +12°C° 0 mm 3 mps 756 mmHg 44%
    03:00 +12°C° 0 mm 4 mps 757 mmHg 47%
    04:00 +12°C° 0 mm 5 mps 757 mmHg 49%
    05:00 +11°C° 0 mm 6 mps 758 mmHg 52%
    06:00 +11°C° 0 mm 8 mps 758 mmHg 52%
    07:00 +12°C° 0 mm 9 mps 759 mmHg 52%
    08:00 +12°C° 0 mm 10 mps 760 mmHg 52%
    09:00 +13°C° 0 mm 10 mps 760 mmHg 51%
    10:00 +13°C° 0 mm 10 mps 761 mmHg 49%
    11:00 +13°C° 0 mm 10 mps 761 mmHg 48%
    12:00 +13°C° 0 mm 10 mps 762 mmHg 50%
    13:00 +13°C° 0 mm 10 mps 762 mmHg 51%
    14:00 +13°C° 0 mm 9 mps 762 mmHg 52%
    15:00 +12°C° 0 mm 9 mps 762 mmHg 54%
    16:00 +11°C° 0 mm 8 mps 763 mmHg 57%
    17:00 +10°C° 0 mm 8 mps 763 mmHg 59%
    18:00 +9°C° 0 mm 7 mps 764 mmHg 63%
    19:00 +8°C° 0 mm 6 mps 764 mmHg 67%
    20:00 +7°C° 0 mm 5 mps 765 mmHg 71%
    21:00 +7°C° 0 mm 5 mps 765 mmHg 73%
    22:00 +6°C° 0 mm 4 mps 766 mmHg 75%
    23:00 +7°C° 0 mm 3 mps 766 mmHg 76%

    23 October, Tuesday

    Time Temperature Precipitation Wind Pressure Humidity
    00:00 +5°C° 0 mm 3 mps 766 mmHg 77%
    01:00 +5°C° 0 mm 3 mps 766 mmHg 78%
    02:00 +5°C° 0 mm 3 mps 766 mmHg 78%
    03:00 +5°C° 0 mm 3 mps 766 mmHg 78%
    04:00 +6°C° 0 mm 2 mps 766 mmHg 77%
    05:00 +6°C° 0 mm 2 mps 766 mmHg 77%
    06:00 +7°C° 0 mm 2 mps 766 mmHg 72%
    07:00 +8°C° 0 mm 3 mps 767 mmHg 68%
    08:00 +9°C° 0 mm 3 mps 767 mmHg 63%
    09:00 +10°C° 0 mm 3 mps 767 mmHg 59%
    10:00 +11°C° 0 mm 4 mps 767 mmHg 55%
    11:00 +12°C° 0 mm 4 mps 767 mmHg 52%
    12:00 +12°C° 0 mm 5 mps 766 mmHg 51%
    13:00 +13°C° 0 mm 5 mps 765 mmHg 50%
    14:00 +13°C° 0 mm 6 mps 765 mmHg 49%
    15:00 +13°C° 0 mm 6 mps 765 mmHg 52%
    16:00 +11°C° 0 mm 6 mps 764 mmHg 56%
    17:00 +10°C° 0 mm 7 mps 764 mmHg 60%
    18:00 +9°C° 0 mm 6 mps 764 mmHg 65%
    19:00 +9°C° 0 mm 6 mps 765 mmHg 70%
    20:00 +8°C° 0 mm 6 mps 765 mmHg 75%
    21:00 +8°C° 0.5 mm 6 mps 765 mmHg 78%
    22:00 +8°C° 0.5 mm 6 mps 765 mmHg 82%
    23:00 +7°C° 0.5 mm 6 mps 765 mmHg 85%

    24 October, Wednesday

    Time Temperature Precipitation Wind Pressure Humidity
    00:00 +8°C° 0.1 mm 6 mps 764 mmHg 86%
    01:00 +8°C° 0.1 mm 6 mps 764 mmHg 87%
    02:00 +8°C° 0.1 mm 5 mps 764 mmHg 88%
    03:00 +8°C° 0.1 mm 5 mps 763 mmHg 88%
    04:00 +9°C° 0.1 mm 5 mps 763 mmHg 88%
    05:00 +9°C° 0.1 mm 6 mps 763 mmHg 89%
    06:00 +9°C° 0.2 mm 6 mps 763 mmHg 88%
    07:00 +9°C° 0.2 mm 6 mps 763 mmHg 87%
    08:00 +10°C° 0.2 mm 6 mps 763 mmHg 87%
    09:00 +10°C° 0.1 mm 6 mps 763 mmHg 85%
    10:00 +11°C° 0.1 mm 6 mps 763 mmHg 83%
    11:00 +11°C° 0.1 mm 6 mps 762 mmHg 81%
    12:00 +11°C° 0.1 mm 6 mps 762 mmHg 80%
    13:00 +13°C° 0.1 mm 5 mps 762 mmHg 79%
    14:00 +13°C° 0.1 mm 5 mps 762 mmHg 79%
    15:00 +13°C° 0.3 mm 5 mps 761 mmHg 81%
    16:00 +13°C° 0.3 mm 5 mps 761 mmHg 83%
    17:00 +12°C° 0.3 mm 5 mps 761 mmHg 85%
    18:00 +12°C° 0.1 mm 5 mps 761 mmHg 87%
    19:00 +12°C° 0.1 mm 4 mps 761 mmHg 89%
    20:00 +11°C° 0.1 mm 4 mps 761 mmHg 92%
    21:00 +11°C° 0 mm 4 mps 761 mmHg 93%
    22:00 +10°C° 0 mm 4 mps 761 mmHg 94%
    23:00 +10°C° 0 mm 4 mps 761 mmHg 95%

    25 October, Thursday

    Time Temperature Precipitation Wind Pressure Humidity
    00:00 +10°C° 0 mm 3 mps 760 mmHg 95%
    01:00 +10°C° 0 mm 3 mps 760 mmHg 94%
    02:00 +10°C° 0 mm 3 mps 760 mmHg 93%
    03:00 +10°C° 0 mm 3 mps 760 mmHg 93%
    04:00 +10°C° 0 mm 3 mps 760 mmHg 93%
    05:00 +10°C° 0 mm 3 mps 760 mmHg 92%
    06:00 +12°C° 0 mm 3 mps 760 mmHg 87%
    07:00 +13°C° 0 mm 4 mps 760 mmHg 82%
    08:00 +14°C° 0 mm 4 mps 760 mmHg 76%
    09:00 +17°C° 0 mm 4 mps 760 mmHg 70%
    10:00 +18°C° 0 mm 4 mps 760 mmHg 65%
    11:00 +20°C° 0 mm 4 mps 759 mmHg 59%
    12:00 +19°C° 0.8 mm 4 mps 759 mmHg 63%
    13:00 +18°C° 0.8 mm 4 mps 759 mmHg 67%
    14:00 +17°C° 0.8 mm 3 mps 758 mmHg 71%
    15:00 +18°C° 0.5 mm 3 mps 758 mmHg 70%
    16:00 +18°C° 0.5 mm 4 mps 757 mmHg 68%
    17:00 +18°C° 0.5 mm 4 mps 757 mmHg 67%
    18:00 +17°C° 0.1 mm 4 mps 757 mmHg 74%
    19:00 +14°C° 0.1 mm 5 mps 757 mmHg 80%
    20:00 +13°C° 0.1 mm 6 mps 757 mmHg 87%
    21:00 +13°C° 0 mm 6 mps 757 mmHg 87%
    22:00 +13°C° 0 mm 6 mps 757 mmHg 87%
    23:00 +13°C° 0 mm 5 mps 757 mmHg 87%
    Show more